Stations météo

réclame
Mon MeteoGroup
Istres, France (7647): Température de l'air & dewpoint: 14.06.2018 23:00:00 - 20.06.2018 23:00:00 (CEST)Istres, France (7647): Température de l'air 5cm: 14.06.2018 23:00:00 - 20.06.2018 23:00:00 (CEST)Istres, France (7647): Vitesse du vent & gusts: 14.06.2018 23:00:00 - 20.06.2018 23:00:00 (CEST)Istres, France (7647): Direction du vent: 14.06.2018 23:00:00 - 20.06.2018 23:00:00 (CEST)Istres, France (7647): reduced air pressure: 14.06.2018 23:00:00 - 20.06.2018 23:00:00 (CEST)Istres, France (7647): visibility: 14.06.2018 23:00:00 - 20.06.2018 23:00:00 (CEST)Istres, France (7647): Quantités de précipitations: 14.06.2018 23:00:00 - 20.06.2018 23:00:00 (CEST)
Date & Time tt [°C] td [°C] tt 5cm [°C] ff [km/h] ff [knt] fx [km/h] fx [knt] dd ppp [hPa] vv [km] rr [mm]
20.06.2018 23:00:00 25,0 15,9 24,6 2 1 8 5 WNW 1019,1 38 0,0
20.06.2018 22:00:00 25,6 15,3 25,1 6 3 16 9 SSE 1018,7 40 0,0
20.06.2018 21:00:00 26,9 15,3 27,2 13 7 21 11 S 1018,2 43 0,0
20.06.2018 20:00:00 28,4 15,7 33,0 15 8 24 13 S 1018,2 28 0,0
20.06.2018 19:00:00 28,8 16,7 34,2 16 8 31 17 S 1018,2 23 0,0
20.06.2018 18:00:00 28,6 16,8 35,1 23 12 34 18 SSE 1018,4 13 0,0
20.06.2018 17:00:00 29,3 18,7 35,8 24 13 36 19 S 1018,6 13 0,0
20.06.2018 16:00:00 28,7 18,2 36,4 26 14 41 22 S 1018,5 15 0,0
20.06.2018 15:00:00 29,6 17,4 37,0 30 16 40 22 S 1018,8 13 0,0
20.06.2018 14:00:00 29,5 18,0 37,4 26 14 40 22 S 1019,0 14 0,0
20.06.2018 13:00:00 29,5 18,0 37,7 21 12 31 17 S 1019,3 20 0,0
20.06.2018 12:00:00 28,9 17,7 37,5 17 9 27 14 S 1019,3 51 0,0
20.06.2018 11:00:00 28,6 16,8 34,9 11 6 19 11 S 1019,1 19 0,0
20.06.2018 10:00:00 27,7 18,1 30,3 8 4 18 10 ESE 1019,1 19 0,0
20.06.2018 09:00:00 25,3 17,2 27,3 9 5 16 8 E 1019,0 32 0,0
20.06.2018 08:00:00 23,2 18,9 22,4 11 6 16 9 NE 1018,7 20 0,0
20.06.2018 07:00:00 20,2 19,4 18,1 10 6 16 9 NNE 1018,4 20 0,0
20.06.2018 06:00:00 18,6 18,6 18,1 9 5 16 8 NNE 1018,2 32 0,0
20.06.2018 05:00:00 19,1 19,1 18,4 10 5 13 7 NNE 1018,0 42 0,0
20.06.2018 04:00:00 20,2 18,7 17,5 4 2 6 3 N 1018,2 46 0,0
20.06.2018 03:00:00 20,9 18,5 18,0 2 1 7 4 NW 1018,3 22 0,0
20.06.2018 02:00:00 22,1 18,1 19,5 5 3 13 7 W 1018,5 18 0,0
20.06.2018 01:00:00 22,3 18,5 19,8 8 4 10 5 SW 1018,6 33 0,0
20.06.2018 00:00:00 23,8 16,8 20,5 4 2 10 6 W 1018,6 32 0,0
19.06.2018 23:00:00 25,3 16,2 22,1 8 4 14 8 NW 1018,5 34 0,0
19.06.2018 22:00:00 26,8 16,1 25,6 11 6 22 12 NW 1018,1 45 0,0
19.06.2018 21:00:00 29,7 15,4 29,1 15 8 22 12 NW 1017,5 45 0,0
19.06.2018 20:00:00 31,3 15,3 33,6 18 10 31 17 NNW 1017,6 31 0,0
19.06.2018 19:00:00 32,5 15,9 38,2 19 10 49 26 NW 1017,7 30 0,0
19.06.2018 18:00:00 33,2 15,2 40,4 20 11 39 21 W 1017,9 31 0,0
19.06.2018 17:00:00 33,4 14,9 42,1 11 6 27 15 WNW 1018,2 34 0,0
19.06.2018 16:00:00 32,8 15,3 42,3 13 7 29 15 NW 1018,5 32 0,0
19.06.2018 15:00:00 33,2 16,1 43,0 10 5 31 17 NW 1018,7 38 0,0
19.06.2018 14:00:00 32,6 16,4 41,4 14 7 26 14 W 1018,9 41 0,0
19.06.2018 13:00:00 31,3 16,5 39,7 8 5 25 14 NNW 1019,2 20 0,0
19.06.2018 12:00:00 29,8 15,9 36,7 12 7 24 13 N 1019,4 32 0,0
19.06.2018 11:00:00 28,4 16,0 34,0 16 9 27 14 N 1019,4 19 0,0
19.06.2018 10:00:00 26,3 15,7 31,0 14 8 25 14 N 1019,7 23 0,0
19.06.2018 09:00:00 23,9 15,1 26,3 18 10 28 15 N 1019,6 19 0,0
19.06.2018 08:00:00 21,9 15,0 22,5 18 10 31 17 N 1019,3 20 0,0
19.06.2018 07:00:00 20,6 15,4 19,2 22 12 32 17 N 1019,0 20 0,0
19.06.2018 06:00:00 19,8 15,2 19,2 21 12 36 20 N 1018,5 48 0,0
19.06.2018 05:00:00 20,1 15,1 19,4 22 12 33 18 N 1018,2 60 0,0
19.06.2018 04:00:00 20,3 14,4 19,6 23 13 34 19 N 1018,3 60 0,0
19.06.2018 03:00:00 20,9 13,8 20,3 20 11 39 21 NNW 1018,1 60 0,0
19.06.2018 02:00:00 21,3 13,2 20,6 25 14 40 22 NNW 1018,1 60 0,0
19.06.2018 01:00:00 21,8 13,2 21,3 29 16 47 25 NNW 1018,4 60 0,0
19.06.2018 00:00:00 22,5 13,3 21,9 30 16 47 26 NNW 1018,4 60 0,0
18.06.2018 23:00:00 23,1 13,0 22,5 32 17 53 29 NNW 1018,3 60 0,0
18.06.2018 22:00:00 23,9 12,8 23,3 34 19 55 30 NNW 1017,8 60 0,0
18.06.2018 21:00:00 25,2 12,8 25,0 37 20 56 30 NNW 1017,5 36 0,0
18.06.2018 20:00:00 26,9 12,5 28,6 34 18 57 31 NNW 1017,1 17 0,0
18.06.2018 19:00:00 28,3 12,6 32,0 37 20 53 28 NNW 1016,8 12 0,0
18.06.2018 18:00:00 28,5 12,8 34,1 29 16 51 28 NNW 1017,1 12 0,0
18.06.2018 17:00:00 29,0 13,2 35,4 35 19 48 26 NNW 1017,0 11 0,0
18.06.2018 16:00:00 28,8 13,1 35,4 31 17 49 26 NNW 1017,0 12 0,0
18.06.2018 15:00:00 28,5 13,2 34,9 37 20 52 28 NNW 1017,3 12 0,0
18.06.2018 14:00:00 27,5 12,7 34,0 36 19 53 29 NNW 1017,6 12 0,0
18.06.2018 13:00:00 26,5 12,2 31,6 34 19 53 29 NNW 1017,9 10 0,0
18.06.2018 12:00:00 25,2 11,7 30,3 37 20 59 32 NNW 1017,8 10 0,0
18.06.2018 11:00:00 24,2 11,5 28,9 40 22 56 30 NNW 1017,7 9 0,0
18.06.2018 10:00:00 22,7 10,8 26,8 37 20 60 33 NNW 1017,9 7 0,0
18.06.2018 09:00:00 21,6 10,4 23,3 42 23 60 33 NNW 1017,6 4,6 0,0
18.06.2018 08:00:00 20,4 10,2 20,9 41 22 64 35 NNW 1017,4 6 0,0
18.06.2018 07:00:00 19,6 10,0 18,7 39 21 66 36 NNW 1017,2 7 0,0
18.06.2018 06:00:00 19,3 10,3 18,7 41 22 72 39 NNW 1016,9 60 0,0
18.06.2018 05:00:00 19,7 10,7 19,2 48 26 74 40 NNW 1016,6 60 0,0
18.06.2018 04:00:00 20,0 10,4 19,6 47 25 74 40 NW 1016,3 60 0,0
18.06.2018 03:00:00 20,5 10,0 19,9 46 25 70 38 NNW 1016,8 60 0,0
18.06.2018 02:00:00 20,8 10,3 20,3 43 23 66 36 NW 1016,9 60 0,0
18.06.2018 01:00:00 21,4 10,8 20,8 42 23 68 37 NW 1017,1 60 0,0
18.06.2018 00:00:00 22,2 11,9 21,7 48 26 67 36 NNW 1017,2 60 0,0
17.06.2018 23:00:00 22,8 11,8 22,3 41 22 60 32 NNW 1016,9 60 0,0
17.06.2018 22:00:00 23,6 12,3 23,0 39 21 59 32 NNW 1016,3 60 0,0
17.06.2018 21:00:00 24,8 13,0 24,3 29 15 55 30 NNW 1016,0 33 0,0
17.06.2018 20:00:00 26,4 13,2 28,0 34 19 64 35 NNW 1015,5 20 0,0
17.06.2018 19:00:00 26,7 13,1 28,4 39 21 60 33 NNW 1015,5 20 0,0
17.06.2018 18:00:00 27,5 13,4 28,9 42 23 60 33 NNW 1015,4 17 0,0
17.06.2018 17:00:00 27,3 13,3 29,6 40 21 57 31 NNW 1015,3 10 0,0
17.06.2018 16:00:00 28,2 13,7 32,0 42 23 61 33 NNW 1015,7 11 0,0
17.06.2018 15:00:00 27,3 14,0 32,7 38 20 57 31 NNW 1015,7 12 0,0
17.06.2018 14:00:00 28,0 14,3 33,9 37 20 54 29 NW 1015,5 11 0,0
17.06.2018 13:00:00 27,3 14,0 33,9 38 20 54 29 NW 1015,6 13 0,0
17.06.2018 12:00:00 26,6 14,0 32,1 41 22 56 30 NNW 1015,8 13 0,0
17.06.2018 11:00:00 25,6 14,1 30,0 37 20 56 31 NNW 1016,0 14 0,0
17.06.2018 10:00:00 23,9 13,4 27,9 42 23 62 33 NNW 1016,0 7 0,0
17.06.2018 09:00:00 23,3 14,0 25,8 35 19 52 28 NNW 1015,8 17 0,0
17.06.2018 08:00:00 21,8 14,2 21,5 30 16 45 25 NW 1015,4 30 0,0
17.06.2018 07:00:00 19,8 15,0 18,2 20 11 29 16 WNW 1014,9 41 0,0
17.06.2018 06:00:00 19,2 15,3 18,3 22 12 39 21 WNW 1014,6 60 0,0
17.06.2018 05:00:00 19,8 14,8 19,0 26 14 41 22 WNW 1014,3 60 0,0
17.06.2018 04:00:00 20,5 13,9 19,8 26 14 44 24 WNW 1014,3 60 0,0
17.06.2018 03:00:00 21,2 13,9 20,2 26 14 40 21 WNW 1014,0 60 0,0
17.06.2018 02:00:00 21,4 14,3 20,6 26 14 37 20 WNW 1014,1 60 0,0
17.06.2018 01:00:00 22,1 14,7 21,4 22 12 34 18 W 1014,3 58 0,0
17.06.2018 00:00:00 22,4 14,0 21,5 18 10 27 14 W 1014,2 59 0,0
16.06.2018 23:00:00 23,4 13,8 22,4 16 9 23 12 NW 1013,9 59 0,0
16.06.2018 22:00:00 24,5 13,7 23,3 13 7 26 14 WNW 1013,5 60 0,0
16.06.2018 21:00:00 26,8 13,5 26,6 15 8 29 16 NNW 1012,8 57 0,0
16.06.2018 20:00:00 27,7 13,2 28,8 18 10 37 20 NNW 1012,6 30 0,0
16.06.2018 19:00:00 28,0 12,4 29,5 21 12 38 21 NNW 1012,2 29 0,0
16.06.2018 18:00:00 30,3 11,3 34,4 27 15 44 24 NW 1012,1 17 0,0
16.06.2018 17:00:00 30,5 12,4 38,5 26 14 42 23 NNW 1012,3 19 0,0
16.06.2018 16:00:00 30,3 14,0 37,2 22 12 37 20 NW 1012,3 22 0,0
16.06.2018 15:00:00 29,9 14,0 38,0 20 11 44 24 NW 1012,6 24 0,0
16.06.2018 14:00:00 29,6 14,2 34,3 22 12 35 19 NW 1012,7 26 0,0
16.06.2018 13:00:00 28,8 15,0 38,4 10 6 25 14 NNW 1012,8 20 0,0
16.06.2018 12:00:00 27,6 14,9 36,5 18 10 29 15 NNW 1012,8 20 0,0
16.06.2018 11:00:00 26,7 14,8 34,1 14 7 27 15 NNW 1012,7 35 0,0
16.06.2018 10:00:00 25,1 15,1 28,7 14 8 22 12 N 1012,8 36 0,0
16.06.2018 09:00:00 22,6 15,2 25,6 15 8 27 15 NNW 1012,9 38 0,0
16.06.2018 08:00:00 21,7 15,8 22,1 17 9 26 14 N 1012,6 22 0,0
16.06.2018 07:00:00 19,7 16,3 17,9 13 7 19 10 NNW 1012,3 25 0,0
16.06.2018 06:00:00 19,4 16,1 17,2 11 6 21 11 NNW 1012,0 44 0,0
16.06.2018 05:00:00 18,0 16,2 16,8 13 7 20 11 NW 1012,0 42 0,0
16.06.2018 04:00:00 18,4 15,8 17,1 13 7 16 9 WNW 1011,9 44 0,0
16.06.2018 03:00:00 19,4 14,2 17,8 9 5 19 11 WNW 1011,9 49 0,0
16.06.2018 02:00:00 21,1 13,8 20,2 15 8 27 15 WNW 1012,1 49 0,0
16.06.2018 01:00:00 21,4 13,1 20,3 18 10 31 17 NW 1012,1 52 0,0
16.06.2018 00:00:00 22,2 12,7 21,3 24 13 35 19 NW 1012,0 53 0,0
15.06.2018 23:00:00 22,7 12,6 21,8 24 13 40 21 NW 1011,9 53 0,0
15.06.2018 22:00:00 23,5 12,2 22,6 27 15 39 21 NNW 1011,8 52 0,0
15.06.2018 21:00:00 24,9 12,1 24,3 27 15 39 21 NNW 1011,6 21 0,0
15.06.2018 20:00:00 26,7 12,4 28,2 27 15 38 20 NW 1011,2 19 0,0
15.06.2018 19:00:00 28,1 11,6 33,1 24 13 36 19 NW 1011,0 22 0,0
15.06.2018 18:00:00 29,3 12,7 34,9 16 9 41 22 WNW 1011,0 22 0,0
15.06.2018 17:00:00 28,8 12,2 33,9 20 11 34 19 NNW 1011,2 21 0,0
15.06.2018 16:00:00 28,3 12,6 35,1 20 11 37 20 NW 1011,6 21 0,0
15.06.2018 15:00:00 28,2 12,1 34,5 13 7 30 16 NNW 1011,6 21 0,0
15.06.2018 14:00:00 27,7 13,6 33,7 23 13 39 21 NW 1011,8 21 0,0
15.06.2018 13:00:00 27,1 13,8 32,1 15 8 29 16 NW 1011,9 24 0,0
15.06.2018 12:00:00 24,8 12,7 24,3 19 10 33 18 N 1012,3 20 0,0
15.06.2018 11:00:00 21,0 12,4 23,8 21 11 29 16 NNW 1012,2 23 0,0
15.06.2018 10:00:00 21,1 12,5 22,1 21 11 28 15 NNW 1012,2 43 0,0
15.06.2018 09:00:00 20,0 12,0 21,9 21 11 31 17 N 1012,0 38 0,0
15.06.2018 08:00:00 20,4 11,9 19,0 18 10 34 19 N 1011,6 29 0,0
15.06.2018 07:00:00 18,8 11,4 18,3 21 11 30 16 NNW 1011,2 43 0,0
15.06.2018 06:00:00 18,9 11,2 18,3 21 12 39 21 NNW 1011,0 52 0,0
15.06.2018 05:00:00 19,2 10,7 18,7 29 15 49 27 NNW 1010,5 53 0,0
15.06.2018 04:00:00 19,8 10,8 19,2 30 16 46 25 NNW 1010,5 53 0,0
15.06.2018 03:00:00 20,0 10,7 19,5 30 16 46 25 NNW 1010,6 55 0,0
15.06.2018 02:00:00 20,2 10,6 19,6 29 16 51 27 NNW 1010,9 57 0,0
15.06.2018 01:00:00 20,7 10,2 20,0 32 17 51 28 NNW 1011,2 60 0,0
15.06.2018 00:00:00 21,4 10,2 20,9 39 21 62 34 NNW 1011,4 59 0,0
14.06.2018 23:00:00 21,9 10,4 21,4 38 21 69 37 NNW 1011,6 55 0,0

tt = Température de l'air
td = dewpoint
tt 5cm = Température de l'air 5cm
ff = Vitesse du vent
fx = gusts
dd = Direction du vent
ppp = reduced air pressure
vv = visibility
rr = Quantités de précipitations

stations d'obs. à proximité